QPF
0.00 0.00 0.00 0.00 0.00 0.00 0.00 0.00 0.00 0.00 0.00 0.00 0.00 0.00 0.01 0.01 0.01 0.02 0.02 0.01 0.02 0.03 0.04 0.03 0.02 0.02 0.06 0.07 0.07 0.09 0.09 0.12 0.13 0.12 0.07 0.06 0.07 0.06 0.07 0.14 0.13 0.06 0.04
0.00 0.00 0.00 0.00 0.00 0.00 0.00 0.00 0.00 0.00 0.00 0.00 0.00 0.01 0.00 0.01 0.02 0.02 0.02 0.02 0.02 0.02 0.04 0.04 0.03 0.03 0.04 0.06 0.07 0.09 0.09 0.10 0.10 0.09 0.07 0.06 0.07 0.05 0.05 0.10 0.12 0.06 0.06
0.00 0.00 0.00 0.00 0.00 0.00 0.00 0.00 0.00 0.00 0.00 0.00 0.01 0.01 0.01 0.01 0.02 0.02 0.02 0.03 0.02 0.01 0.02 0.04 0.04 0.03 0.03 0.06 0.06 0.05 0.08 0.10 0.10 0.09 0.07 0.05 0.05 0.04 0.03 0.08 0.09 0.06 0.06
0.00 0.00 0.00 0.00 0.00 0.00 0.00 0.01 0.01 0.01 0.01 0.01 0.01 0.01 0.01 0.01 0.03 0.02 0.02 0.02 0.03 0.02 0.02 0.02 0.03 0.02 0.02 0.04 0.06 0.05 0.07 0.09 0.08 0.07 0.05 0.04 0.04 0.04 0.04 0.07 0.11 0.09 0.08
0.00 0.00 0.00 0.00 0.00 0.00 0.01 0.01 0.01 0.02 0.02 0.02 0.01 0.01 0.02 0.02 0.03 0.02 0.02 0.03 0.04 0.03 0.03 0.02 0.02 0.02 0.02 0.03 0.04 0.06 0.06 0.08 0.08 0.06 0.05 0.04 0.04 0.04 0.05 0.05 0.07 0.11 0.09
0.00 0.00 0.00 0.00 0.00 0.01 0.02 0.02 0.02 0.02 0.02 0.02 0.01 0.02 0.02 0.03 0.02 0.02 0.03 0.04 0.04 0.03 0.03 0.03 0.03 0.01 0.01 0.02 0.03 0.05 0.06 0.07 0.07 0.06 0.04 0.03 0.03 0.03 0.04 0.05 0.06 0.07 0.08
0.00 0.00 0.01 0.00 0.00 0.01 0.02 0.02 0.01 0.02 0.02 0.01 0.02 0.03 0.03 0.03 0.02 0.02 0.03 0.03 0.04 0.04 0.05 0.04 0.05 0.04 0.03 0.02 0.02 0.03 0.04 0.05 0.05 0.06 0.05 0.04 0.03 0.03 0.04 0.05 0.06 0.07 0.07
0.00 0.00 0.00 0.00 0.00 0.01 0.01 0.01 0.01 0.03 0.03 0.02 0.03 0.05 0.06 0.06 0.04 0.03 0.03 0.03 0.05 0.05 0.04 0.03 0.04 0.05 0.05 0.04 0.03 0.02 0.04 0.09 0.05 0.04 0.05 0.04 0.04 0.05 0.05 0.05 0.07 0.07 0.06
0.00 0.00 0.00 0.00 0.00 0.00 0.01 0.01 0.01 0.04 0.04 0.03 0.02 0.04 0.07 0.06 0.05 0.05 0.04 0.03 0.04 0.04 0.04 0.03 0.03 0.04 0.06 0.06 0.04 0.02 0.05 0.13 0.08 0.05 0.05 0.05 0.08 0.09 0.09 0.10 0.10 0.08 0.07
0.00 0.00 0.00 0.00 0.00 0.00 0.01 0.01 0.01 0.02 0.03 0.04 0.03 0.03 0.04 0.06 0.07 0.06 0.06 0.04 0.03 0.03 0.04 0.03 0.03 0.04 0.05 0.08 0.05 0.02 0.04 0.14 0.11 0.06 0.05 0.08 0.13 0.16 0.13 0.15 0.15 0.12 0.09
0.00 0.00 0.00 0.00 0.00 0.00 0.00 0.01 0.01 0.01 0.02 0.02 0.03 0.02 0.03 0.04 0.05 0.06 0.06 0.05 0.05 0.03 0.03 0.03 0.03 0.05 0.06 0.09 0.06 0.03 0.04 0.11 0.15 0.08 0.06 0.08 0.12 0.23 0.23 0.18 0.15 0.13 0.13
0.00 0.00 0.00 0.00 0.00 0.00 0.01 0.01 0.01 0.01 0.01 0.01 0.02 0.02 0.02 0.03 0.04 0.04 0.05 0.05 0.05 0.04 0.04 0.04 0.03 0.04 0.05 0.07 0.04 0.03 0.04 0.07 0.10 0.06 0.05 0.07 0.10 0.24 0.32 0.23 0.15 0.11 0.12
0.00 0.00 0.00 0.00 0.00 0.00 0.01 0.01 0.01 0.01 0.00 0.00 0.01 0.01 0.02 0.02 0.02 0.02 0.03 0.04 0.04 0.05 0.05 0.05 0.04 0.04 0.04 0.05 0.04 0.02 0.02 0.04 0.05 0.05 0.04 0.04 0.06 0.17 0.32 0.27 0.17 0.10 0.10
0.00 0.00 0.01 0.00 0.00 0.00 0.00 0.01 0.01 0.01 0.00 0.00 0.00 0.01 0.01 0.01 0.01 0.02 0.02 0.04 0.05 0.06 0.06 0.04 0.03 0.03 0.03 0.03 0.02 0.02 0.02 0.02 0.02 0.03 0.03 0.03 0.03 0.06 0.16 0.21 0.18 0.11 0.08
0.00 0.00 0.01 0.00 0.00 0.00 0.00 0.00 0.00 0.01 0.00 0.00 0.00 0.00 0.01 0.01 0.01 0.01 0.01 0.02 0.04 0.05 0.04 0.03 0.02 0.02 0.03 0.03 0.01 0.01 0.02 0.02 0.02 0.01 0.02 0.03 0.03 0.02 0.04 0.10 0.11 0.07 0.06
0.00 0.00 0.01 0.00 0.00 0.00 0.00 0.00 0.00 0.00 0.00 0.01 0.01 0.00 0.00 0.01 0.01 0.01 0.01 0.01 0.02 0.03 0.02 0.02 0.02 0.02 0.03 0.03 0.02 0.01 0.02 0.02 0.01 0.01 0.02 0.03 0.03 0.02 0.02 0.03 0.04 0.04 0.03
0.00 0.00 0.00 0.00 0.00 0.00 0.00 0.00 0.00 0.00 0.01 0.01 0.01 0.00 0.00 0.00 0.00 0.01 0.01 0.01 0.02 0.02 0.02 0.02 0.01 0.01 0.02 0.03 0.03 0.02 0.01 0.02 0.01 0.01 0.01 0.02 0.03 0.02 0.01 0.01 0.02 0.02 0.02
0.00 0.00 0.00 0.00 0.00 0.00 0.01 0.00 0.00 0.00 0.01 0.02 0.02 0.02 0.01 0.00 0.00 0.00 0.01 0.01 0.01 0.01 0.01 0.02 0.01 0.01 0.01 0.02 0.03 0.02 0.01 0.01 0.01 0.01 0.01 0.01 0.02 0.02 0.01 0.01 0.01 0.01 0.02
0.00 0.00 0.00 0.00 0.00 0.00 0.01 0.01 0.00 0.00 0.01 0.01 0.01 0.02 0.02 0.01 0.01 0.00 0.01 0.01 0.01 0.00 0.01 0.01 0.01 0.01 0.01 0.01 0.01 0.01 0.01 0.01 0.00 0.00 0.01 0.01 0.01 0.02 0.02 0.02 0.02 0.01 0.01
0.00 0.00 0.00 0.00 0.00 0.00 0.00 0.00 0.00 0.01 0.00 0.00 0.00 0.01 0.01 0.01 0.01 0.01 0.00 0.00 0.00 0.00 0.01 0.01 0.02 0.01 0.01 0.01 0.02 0.02 0.01 0.01 0.01 0.00 0.00 0.00 0.01 0.01 0.02 0.02 0.02 0.02 0.01
0.00 0.00 0.00 0.00 0.00 0.00 0.00 0.00 0.00 0.01 0.01 0.00 0.00 0.01 0.01 0.01 0.03 0.02 0.01 0.01 0.01 0.01 0.02 0.01 0.01 0.01 0.01 0.01 0.01 0.02 0.01 0.01 0.01 0.01 0.00 0.00 0.01 0.01 0.01 0.02 0.02 0.02 0.02
0.00 0.00 0.00 0.00 0.00 0.00 0.00 0.00 0.00 0.00 0.00 0.01 0.00 0.00 0.00 0.00 0.01 0.01 0.02 0.02 0.02 0.02 0.02 0.02 0.01 0.01 0.01 0.01 0.01 0.01 0.01 0.01 0.01 0.01 0.01 0.01 0.00 0.01 0.01 0.01 0.03 0.02 0.02
0.00 0.00 0.00 0.00 0.00 0.00 0.00 0.00 0.00 0.00 0.00 0.00 0.00 0.00 0.00 0.00 0.00 0.00 0.00 0.01 0.01 0.01 0.01 0.01 0.01 0.00 0.01 0.01 0.01 0.01 0.01 0.02 0.02 0.02 0.01 0.01 0.00 0.00 0.01 0.01 0.02 0.02 0.01
0.01 0.00 0.00 0.00 0.00 0.00 0.00 0.00 0.00 0.00 0.00 0.00 0.00 0.00 0.00 0.00 0.00 0.00 0.00 0.00 0.00 0.00 0.00 0.00 0.00 0.00 0.00 0.01 0.01 0.01 0.02 0.02 0.02 0.01 0.01 0.01 0.00 0.00 0.00 0.01 0.02 0.01 0.01
0.01 0.00 0.00 0.00 0.00 0.00 0.00 0.00 0.00 0.00 0.00 0.00 0.00 0.00 0.00 0.00 0.00 0.00 0.00 0.00 0.00 0.00 0.00 0.00 0.00 0.00 0.00 0.00 0.01 0.01 0.02 0.02 0.01 0.01 0.01 0.01 0.00 0.00 0.01 0.01 0.01 0.01 0.01
0.00 0.00 0.00 0.00 0.00 0.00 0.00 0.00 0.00 0.00 0.00 0.00 0.00 0.00 0.00 0.00 0.00 0.00 0.00 0.00 0.00 0.00 0.00 0.00 0.00 0.00 0.00 0.00 0.00 0.01 0.02 0.02 0.02 0.02 0.02 0.02 0.01 0.01 0.01 0.01 0.01 0.01 0.01
MSLP
1014.76 1014.66 1014.52 1014.34 1014.14 1013.94 1013.75 1013.57 1013.41 1013.26 1013.11 1012.97 1012.85 1012.74 1012.67 1012.64 1012.67 1012.76 1012.90 1013.08 1013.29 1013.51 1013.72 1013.93 1014.13 1014.32 1014.50 1014.70 1014.90 1015.11 1015.33 1015.54 1015.73 1015.92 1016.08 1016.24 1016.38 1016.53 1016.69 1016.87 1017.08 1017.32 1017.62
1015.03 1014.92 1014.75 1014.53 1014.29 1014.04 1013.81 1013.60 1013.42 1013.27 1013.15 1013.05 1012.97 1012.90 1012.84 1012.79 1012.76 1012.76 1012.80 1012.88 1013.00 1013.16 1013.36 1013.58 1013.83 1014.09 1014.35 1014.60 1014.83 1015.03 1015.22 1015.39 1015.55 1015.70 1015.86 1016.02 1016.20 1016.38 1016.58 1016.79 1017.00 1017.24 1017.51
1015.37 1015.25 1015.08 1014.85 1014.58 1014.30 1014.02 1013.78 1013.58 1013.44 1013.34 1013.27 1013.22 1013.17 1013.10 1013.01 1012.91 1012.82 1012.74 1012.71 1012.74 1012.85 1013.04 1013.30 1013.60 1013.91 1014.22 1014.49 1014.70 1014.86 1014.97 1015.05 1015.13 1015.23 1015.36 1015.55 1015.78 1016.05 1016.33 1016.63 1016.92 1017.20 1017.48
1015.73 1015.64 1015.47 1015.24 1014.96 1014.66 1014.36 1014.09 1013.87 1013.72 1013.62 1013.57 1013.53 1013.48 1013.39 1013.26 1013.09 1012.90 1012.72 1012.60 1012.56 1012.63 1012.82 1013.09 1013.43 1013.77 1014.08 1014.32 1014.45 1014.49 1014.45 1014.38 1014.33 1014.33 1014.44 1014.65 1014.97 1015.37 1015.82 1016.27 1016.70 1017.09 1017.45
1016.09 1016.02 1015.88 1015.67 1015.40 1015.08 1014.76 1014.46 1014.22 1014.05 1013.94 1013.88 1013.84 1013.78 1013.66 1013.49 1013.26 1013.00 1012.75 1012.57 1012.49 1012.54 1012.72 1013.00 1013.34 1013.66 1013.91 1014.04 1014.01 1013.85 1013.59 1013.30 1013.06 1012.93 1012.99 1013.24 1013.67 1014.25 1014.92 1015.61 1016.26 1016.84 1017.33
1016.40 1016.37 1016.27 1016.09 1015.83 1015.52 1015.19 1014.87 1014.59 1014.39 1014.26 1014.18 1014.11 1014.03 1013.90 1013.70 1013.44 1013.14 1012.86 1012.65 1012.56 1012.60 1012.77 1013.04 1013.35 1013.60 1013.72 1013.66 1013.40 1012.96 1012.40 1011.83 1011.35 1011.07 1011.06 1011.35 1011.92 1012.71 1013.65 1014.62 1015.55 1016.38 1017.07
1016.67 1016.67 1016.61 1016.46 1016.23 1015.93 1015.59 1015.25 1014.95 1014.72 1014.55 1014.44 1014.36 1014.26 1014.12 1013.91 1013.65 1013.36 1013.09 1012.88 1012.80 1012.84 1013.01 1013.24 1013.47 1013.60 1013.54 1013.23 1012.68 1011.91 1011.02 1010.14 1009.40 1008.95 1008.86 1009.18 1009.88 1010.90 1012.11 1013.39 1014.63 1015.73 1016.65
1016.91 1016.93 1016.89 1016.78 1016.58 1016.30 1015.97 1015.62 1015.30 1015.03 1014.83 1014.70 1014.60 1014.49 1014.36 1014.17 1013.94 1013.68 1013.44 1013.27 1013.21 1013.27 1013.41 1013.60 1013.72 1013.69 1013.42 1012.85 1011.99 1010.89 1009.67 1008.48 1007.50 1006.88 1006.71 1007.05 1007.87 1009.08 1010.54 1012.12 1013.64 1015.01 1016.14
1017.11 1017.14 1017.13 1017.05 1016.88 1016.62 1016.30 1015.96 1015.63 1015.34 1015.13 1014.98 1014.87 1014.78 1014.66 1014.51 1014.32 1014.12 1013.93 1013.81 1013.78 1013.84 1013.96 1014.07 1014.09 1013.91 1013.43 1012.63 1011.50 1010.12 1008.63 1007.19 1006.01 1005.24 1005.01 1005.35 1006.25 1007.61 1009.26 1011.05 1012.80 1014.37 1015.68
1017.30 1017.32 1017.32 1017.26 1017.11 1016.89 1016.60 1016.27 1015.95 1015.68 1015.46 1015.31 1015.21 1015.13 1015.04 1014.94 1014.80 1014.65 1014.52 1014.43 1014.42 1014.48 1014.57 1014.62 1014.55 1014.24 1013.62 1012.65 1011.34 1009.79 1008.14 1006.55 1005.25 1004.40 1004.12 1004.46 1005.40 1006.82 1008.57 1010.47 1012.33 1014.01 1015.41
1017.47 1017.47 1017.46 1017.41 1017.30 1017.11 1016.85 1016.57 1016.28 1016.02 1015.82 1015.69 1015.60 1015.55 1015.49 1015.42 1015.33 1015.22 1015.13 1015.07 1015.06 1015.10 1015.16 1015.16 1015.02 1014.64 1013.96 1012.93 1011.58 1009.99 1008.31 1006.71 1005.39 1004.53 1004.25 1004.57 1005.49 1006.90 1008.64 1010.53 1012.38 1014.04 1015.44
1017.60 1017.57 1017.56 1017.52 1017.43 1017.28 1017.07 1016.84 1016.59 1016.38 1016.21 1016.09 1016.03 1016.00 1015.97 1015.92 1015.86 1015.77 1015.69 1015.63 1015.61 1015.63 1015.64 1015.61 1015.45 1015.07 1014.40 1013.43 1012.17 1010.70 1009.14 1007.66 1006.45 1005.66 1005.39 1005.71 1006.57 1007.88 1009.50 1011.25 1012.97 1014.51 1015.78
1017.69 1017.63 1017.60 1017.57 1017.51 1017.40 1017.25 1017.07 1016.89 1016.72 1016.59 1016.50 1016.46 1016.45 1016.43 1016.40 1016.34 1016.25 1016.15 1016.07 1016.02 1015.99 1015.97 1015.92 1015.77 1015.44 1014.89 1014.08 1013.02 1011.79 1010.48 1009.24 1008.22 1007.57 1007.37 1007.67 1008.44 1009.59 1011.00 1012.52 1014.00 1015.31 1016.39
1017.73 1017.65 1017.62 1017.60 1017.57 1017.51 1017.42 1017.29 1017.16 1017.04 1016.95 1016.90 1016.88 1016.87 1016.86 1016.82 1016.75 1016.64 1016.51 1016.38 1016.27 1016.19 1016.14 1016.07 1015.96 1015.73 1015.33 1014.75 1013.98 1013.07 1012.09 1011.16 1010.40 1009.93 1009.82 1010.10 1010.75 1011.71 1012.86 1014.08 1015.26 1016.29 1017.11
1017.76 1017.68 1017.66 1017.66 1017.66 1017.64 1017.59 1017.52 1017.44 1017.36 1017.31 1017.28 1017.27 1017.26 1017.25 1017.20 1017.10 1016.96 1016.78 1016.59 1016.42 1016.29 1016.19 1016.11 1016.04 1015.91 1015.69 1015.36 1014.89 1014.32 1013.70 1013.10 1012.62 1012.34 1012.32 1012.58 1013.10 1013.84 1014.71 1015.62 1016.48 1017.21 1017.78
1017.84 1017.78 1017.77 1017.79 1017.82 1017.84 1017.84 1017.81 1017.76 1017.71 1017.68 1017.66 1017.66 1017.65 1017.63 1017.56 1017.45 1017.27 1017.05 1016.81 1016.57 1016.37 1016.23 1016.13 1016.07 1016.03 1015.96 1015.84 1015.65 1015.39 1015.08 1014.79 1014.55 1014.44 1014.49 1014.71 1015.10 1015.63 1016.24 1016.86 1017.43 1017.89 1018.24
1018.05 1018.02 1018.03 1018.08 1018.14 1018.18 1018.20 1018.19 1018.16 1018.13 1018.10 1018.09 1018.09 1018.08 1018.06 1017.98 1017.85 1017.66 1017.41 1017.12 1016.84 1016.58 1016.37 1016.24 1016.18 1016.17 1016.19 1016.21 1016.21 1016.17 1016.11 1016.03 1015.97 1015.97 1016.05 1016.22 1016.49 1016.83 1017.21 1017.59 1017.92 1018.19 1018.37
1018.45 1018.45 1018.49 1018.56 1018.63 1018.69 1018.71 1018.71 1018.69 1018.65 1018.62 1018.60 1018.60 1018.59 1018.57 1018.50 1018.38 1018.18 1017.92 1017.62 1017.29 1016.98 1016.73 1016.54 1016.44 1016.42 1016.46 1016.54 1016.63 1016.71 1016.77 1016.81 1016.84 1016.88 1016.95 1017.06 1017.21 1017.39 1017.59 1017.79 1017.97 1018.10 1018.19
1019.04 1019.08 1019.15 1019.23 1019.31 1019.36 1019.38 1019.37 1019.33 1019.28 1019.24 1019.21 1019.20 1019.20 1019.19 1019.14 1019.04 1018.86 1018.62 1018.31 1017.97 1017.64 1017.33 1017.09 1016.93 1016.85 1016.85 1016.91 1016.99 1017.09 1017.17 1017.23 1017.27 1017.29 1017.31 1017.33 1017.37 1017.43 1017.50 1017.58 1017.65 1017.72 1017.79
1019.81 1019.87 1019.96 1020.05 1020.12 1020.16 1020.16 1020.12 1020.06 1019.99 1019.93 1019.89 1019.88 1019.88 1019.89 1019.87 1019.80 1019.67 1019.46 1019.18 1018.85 1018.50 1018.16 1017.86 1017.64 1017.48 1017.40 1017.39 1017.40 1017.44 1017.46 1017.47 1017.44 1017.39 1017.33 1017.26 1017.20 1017.16 1017.13 1017.14 1017.17 1017.21 1017.28
1020.65 1020.74 1020.83 1020.91 1020.97 1020.99 1020.97 1020.90 1020.82 1020.72 1020.64 1020.59 1020.58 1020.59 1020.62 1020.63 1020.60 1020.51 1020.35 1020.11 1019.81 1019.47 1019.12 1018.80 1018.51 1018.29 1018.12 1018.00 1017.92 1017.86 1017.79 1017.70 1017.58 1017.44 1017.28 1017.12 1016.97 1016.84 1016.75 1016.71 1016.70 1016.74 1016.82
1021.46 1021.56 1021.65 1021.72 1021.76 1021.76 1021.71 1021.63 1021.52 1021.41 1021.32 1021.26 1021.24 1021.26 1021.30 1021.34 1021.34 1021.30 1021.18 1020.99 1020.74 1020.43 1020.09 1019.76 1019.44 1019.17 1018.93 1018.74 1018.57 1018.40 1018.23 1018.05 1017.84 1017.61 1017.36 1017.12 1016.90 1016.70 1016.56 1016.47 1016.43 1016.45 1016.52
1022.13 1022.23 1022.31 1022.37 1022.40 1022.38 1022.32 1022.23 1022.11 1022.00 1021.90 1021.84 1021.82 1021.84 1021.88 1021.92 1021.95 1021.94 1021.86 1021.71 1021.50 1021.23 1020.93 1020.62 1020.31 1020.02 1019.75 1019.51 1019.28 1019.06 1018.82 1018.57 1018.29 1017.99 1017.69 1017.39 1017.10 1016.86 1016.66 1016.52 1016.44 1016.41 1016.43
1022.57 1022.67 1022.74 1022.79 1022.81 1022.80 1022.74 1022.66 1022.55 1022.45 1022.36 1022.30 1022.27 1022.28 1022.31 1022.35 1022.38 1022.37 1022.31 1022.19 1022.02 1021.79 1021.54 1021.26 1020.99 1020.72 1020.47 1020.23 1019.99 1019.75 1019.49 1019.22 1018.91 1018.59 1018.25 1017.92 1017.60 1017.31 1017.06 1016.86 1016.71 1016.61 1016.55
1022.76 1022.86 1022.93 1022.99 1023.02 1023.02 1022.98 1022.93 1022.85 1022.77 1022.70 1022.65 1022.62 1022.61 1022.62 1022.63 1022.63 1022.60 1022.53 1022.42 1022.27 1022.08 1021.87 1021.65 1021.43 1021.21 1021.00 1020.80 1020.60 1020.38 1020.15 1019.88 1019.59 1019.28 1018.95 1018.61 1018.27 1017.96 1017.67 1017.41 1017.18 1016.99 1016.83
1022.75 1022.85 1022.94 1023.01 1023.06 1023.09 1023.10 1023.08 1023.05 1023.01 1022.96 1022.92 1022.88 1022.85 1022.83 1022.79 1022.75 1022.68 1022.59 1022.46 1022.31 1022.15 1021.97 1021.79 1021.63 1021.47 1021.32 1021.18 1021.03 1020.87 1020.68 1020.46 1020.21 1019.93 1019.63 1019.31 1018.98 1018.65 1018.33 1018.02 1017.73 1017.45 1017.19
Thickness
5741 5740 5739 5737 5736 5735 5734 5734 5734 5734 5734 5734 5735 5736 5736 5736 5736 5735 5734 5735 5735 5736 5736 5738 5739 5740 5741 5743 5744 5746 5748 5750 5750 5751 5752 5754 5755 5756 5758 5760 5761 5763 5766
5739 5738 5736 5735 5734 5733 5732 5732 5731 5730 5730 5730 5730 5731 5732 5733 5733 5732 5732 5732 5732 5733 5734 5735 5736 5737 5739 5740 5741 5743 5745 5746 5747 5748 5749 5751 5752 5754 5756 5758 5759 5761 5764
5737 5735 5734 5732 5732 5731 5730 5729 5728 5727 5727 5727 5726 5727 5728 5728 5729 5730 5730 5730 5730 5731 5732 5733 5734 5735 5736 5737 5738 5740 5742 5743 5744 5745 5746 5748 5750 5752 5754 5756 5757 5759 5760
5734 5733 5731 5730 5729 5728 5727 5726 5724 5722 5722 5722 5722 5723 5724 5725 5726 5727 5727 5728 5729 5729 5729 5730 5731 5732 5733 5734 5736 5737 5738 5739 5740 5742 5744 5745 5747 5749 5751 5753 5755 5756 5757
5732 5730 5729 5727 5726 5725 5723 5723 5720 5719 5717 5717 5719 5720 5721 5721 5722 5724 5725 5726 5727 5727 5727 5728 5729 5730 5731 5732 5733 5734 5735 5737 5738 5739 5741 5742 5744 5746 5748 5750 5752 5753 5755
5729 5728 5726 5725 5723 5721 5720 5719 5717 5716 5715 5715 5717 5717 5718 5718 5719 5720 5721 5723 5724 5724 5725 5725 5726 5727 5728 5729 5730 5731 5733 5734 5735 5736 5738 5739 5741 5743 5745 5747 5749 5751 5752
5726 5726 5724 5722 5721 5718 5717 5716 5714 5712 5712 5713 5710 5709 5713 5716 5715 5716 5718 5718 5720 5721 5722 5723 5724 5725 5726 5726 5727 5728 5730 5731 5733 5734 5736 5737 5739 5741 5743 5745 5747 5748 5749
5724 5724 5722 5720 5719 5717 5715 5713 5711 5708 5708 5710 5706 5702 5698 5702 5708 5714 5714 5715 5716 5717 5719 5720 5721 5722 5723 5724 5724 5725 5726 5728 5730 5732 5734 5735 5737 5738 5740 5742 5744 5745 5746
5722 5722 5721 5720 5718 5716 5713 5712 5710 5706 5703 5706 5707 5701 5693 5689 5696 5705 5709 5712 5713 5714 5715 5717 5717 5718 5719 5720 5720 5721 5723 5725 5727 5730 5732 5733 5734 5735 5737 5739 5740 5742 5743
5721 5720 5720 5719 5717 5715 5713 5711 5710 5707 5704 5701 5703 5704 5702 5700 5693 5692 5700 5706 5710 5710 5711 5713 5714 5715 5716 5716 5717 5718 5719 5721 5723 5726 5728 5730 5731 5732 5734 5735 5736 5738 5739
5720 5719 5719 5718 5716 5714 5712 5710 5709 5707 5705 5702 5700 5700 5700 5700 5699 5693 5690 5696 5701 5705 5708 5709 5710 5711 5712 5713 5713 5714 5716 5718 5719 5721 5723 5725 5727 5729 5730 5732 5734 5735 5735
5718 5718 5718 5716 5714 5713 5711 5709 5708 5706 5704 5703 5701 5700 5697 5695 5694 5693 5690 5691 5693 5699 5704 5706 5707 5708 5709 5709 5710 5711 5712 5713 5714 5716 5718 5720 5723 5724 5725 5730 5732 5732 5731
5714 5715 5715 5714 5712 5711 5710 5709 5707 5705 5704 5702 5700 5699 5699 5697 5697 5695 5691 5689 5691 5695 5699 5701 5703 5705 5705 5706 5706 5707 5708 5709 5710 5712 5714 5715 5717 5718 5721 5724 5725 5726 5726
5713 5713 5713 5711 5710 5709 5708 5707 5705 5703 5703 5701 5700 5699 5698 5697 5697 5695 5692 5688 5685 5688 5691 5694 5699 5701 5702 5702 5703 5704 5705 5706 5707 5708 5709 5711 5712 5714 5715 5717 5719 5720 5721
5713 5712 5711 5709 5708 5707 5705 5704 5702 5701 5700 5699 5698 5698 5696 5696 5696 5695 5694 5691 5684 5679 5681 5688 5691 5696 5698 5699 5700 5701 5701 5702 5703 5704 5706 5707 5708 5709 5711 5712 5714 5715 5716
5711 5709 5708 5706 5705 5703 5703 5701 5699 5698 5697 5696 5696 5695 5694 5694 5693 5693 5692 5690 5688 5683 5679 5685 5688 5692 5694 5695 5696 5697 5698 5699 5700 5701 5702 5703 5704 5705 5706 5708 5709 5710 5711
5708 5706 5705 5703 5701 5700 5699 5697 5696 5695 5694 5693 5693 5692 5691 5691 5690 5690 5689 5688 5686 5684 5679 5682 5686 5689 5690 5690 5691 5692 5694 5695 5696 5697 5698 5699 5699 5701 5702 5703 5704 5705 5706
5705 5703 5701 5699 5698 5696 5695 5693 5692 5691 5690 5689 5689 5688 5687 5687 5686 5685 5685 5684 5683 5683 5679 5677 5680 5683 5685 5686 5687 5688 5689 5690 5691 5692 5694 5694 5695 5696 5697 5698 5699 5700 5701
5701 5699 5697 5695 5693 5692 5691 5689 5689 5687 5687 5686 5685 5684 5683 5681 5679 5679 5679 5678 5678 5679 5677 5675 5675 5678 5679 5681 5682 5683 5684 5685 5686 5687 5689 5690 5690 5691 5692 5693 5694 5694 5695
5696 5695 5693 5691 5689 5687 5685 5684 5683 5682 5682 5681 5680 5679 5678 5676 5674 5673 5673 5672 5672 5671 5671 5669 5669 5670 5672 5674 5675 5674 5675 5677 5679 5682 5683 5684 5685 5686 5686 5687 5688 5688 5689
5691 5690 5688 5686 5684 5682 5679 5677 5676 5677 5675 5674 5674 5673 5672 5671 5669 5668 5667 5665 5664 5662 5662 5661 5660 5661 5662 5663 5664 5666 5666 5669 5672 5674 5675 5676 5678 5678 5679 5681 5681 5682 5683
5685 5684 5682 5680 5677 5675 5673 5671 5670 5669 5668 5667 5666 5666 5665 5664 5662 5661 5660 5659 5658 5656 5654 5653 5653 5652 5654 5656 5657 5658 5657 5658 5659 5666 5666 5667 5669 5670 5672 5673 5675 5675 5677
5679 5677 5675 5673 5670 5667 5667 5665 5664 5662 5661 5660 5659 5658 5658 5656 5653 5652 5652 5652 5651 5650 5649 5647 5646 5646 5647 5649 5649 5649 5649 5650 5651 5656 5656 5657 5660 5661 5664 5666 5667 5668 5669
5672 5670 5669 5667 5664 5661 5660 5658 5657 5656 5655 5654 5653 5651 5648 5645 5644 5643 5643 5643 5642 5642 5641 5641 5640 5641 5643 5643 5643 5643 5643 5644 5647 5648 5648 5646 5650 5651 5655 5657 5658 5659 5660
5666 5665 5663 5661 5657 5654 5653 5651 5650 5648 5647 5646 5645 5642 5639 5636 5635 5634 5633 5632 5632 5632 5633 5633 5634 5634 5635 5635 5635 5634 5632 5631 5632 5636 5637 5636 5639 5641 5644 5646 5649 5650 5651
5660 5658 5656 5655 5652 5648 5645 5643 5641 5639 5638 5637 5635 5633 5630 5628 5626 5624 5622 5621 5620 5621 5622 5623 5624 5624 5624 5625 5624 5622 5620 5618 5619 5621 5626 5624 5626 5626 5629 5635 5637 5639 5640